Regional Weather Roundup
Issued by NWS Bismarck, ND

Home | Current Version | Previous Version | Text Only | Print | Product List | Glossary On
Versions: 1 2 3 4 5 6 7 8 9 10 11 12 13 14 15 16 17 18 19 20 21 22 23 24 25 26 27 28 29 30 31 32 33 34 35 36 37 38 39 40 41 42 43 44 45 46 47 48 49 50
000
ASUS43 KBIS 290020
RWRBIS

NWR BROADCAST TEXT
NATIONAL WEATHER SERVICE BISMARCK ND
600 PM CST SUN DEC 28 2014

NOTE: "FAIR" INDICATES FEW OR NO CLOUDS BELOW 12,000 FEET WITH NO
SIGNIFICANT WEATHER AND/OR OBSTRUCTIONS TO VISIBILITY.


CITY           SKY/WX    TMP DP  RH WIND       PRES   REMARKS
WILLISTON      CLOUDY     7  -1  70 N14       30.31R WCI -10
MINOT          MOCLDY    -3  -7  82 N10       30.35R WCI -20
MINOT AFB      PTCLDY    -5  -8  86 N8        30.36R WCI -20
BISMARCK       CLOUDY     6   0  76 NE12      30.29R WCI  -9
DICKINSON      LGT SNOW  12   7  80 NE13      30.15R WCI  -3
GARRISON         N/A      4  -1  80 NE10      30.28R WCI -11
HETTINGER ARPT LGT SNOW  16  12  84 E12       30.12R FOG     WCI   3
JAMESTOWN      CLOUDY    -1  -6  79 N12       30.31R WCI -18
BEACH          FLURRIES  12  10  92 NE14      30.16R WCI  -3
CARRINGTON     CLOUDY    -2  -8  78 MISG      30.35R
CROSBY         FAIR      -2  -8  78 N3        30.37R
HARVEY         MOCLDY     0  -4  85 NE8       30.34R WCI -15
HAZEN          CLOUDY     7   0  72 NE10      30.29R WCI  -8
LINTON         CLOUDY     9   5  85 NE9       30.24R WCI  -5
MANDAN         FLURRIES   5   1  85 E13       30.26R WCI -12
OAKES            N/A      3   0  85 N13       30.32R WCI -14
RUGBY          FAIR      -4  -8  84 N3        30.36R
STANLEY        CLOUDY     0  -2  92 NE8       30.30R WCI -15
WATFORD CITY   CLOUDY     7   1  78 NE10      30.26R WCI  -8
$$

CITY           SKY/WX    TMP DP  RH WIND       PRES   REMARKS
GRAND FORKS    CLEAR     -7 -11  83 N7        30.42R WCI -21
GRAND FORKS AF CLEAR     -6 -10  84 N5        30.42R WCI -18
DEVILS LAKE    CLEAR     -6 -13  71 NE3       30.35R
FARGO          CLEAR      0  -7  72 N9        30.39R WCI -15
CANDO          FAIR      -6  -9  84 N7        30.37R WCI -20
CAVALIER       FAIR      -4  -9  77 N6        30.42S WCI -16
GWINNER        CLEAR      3  -2  78 N14       30.34R WCI -15
LANGDON        FAIR     -11 -17  77 N5        30.34R WCI -23
ROLLA          FAIR      -8 -11  84 N9        30.34R WCI -25
WALHALLA         N/A     -6  -9  84 W5        30.43R WCI -17
$$

CITY           SKY/WX    TMP DP  RH WIND       PRES   REMARKS
ABERDEEN       MOCLDY     7  -1  70 NE10      30.28R WCI  -8
MOBRIDGE       CLOUDY    11   6  81 E9        30.20R WCI  -2
BUFFALO          N/A     19  15  84 NE14      29.98R WCI   6
RAPID CITY     LGT SNOW  18  14  84 NE9       30.01R FOG     WCI   7
GLASGOW        CLOUDY    11   2  67 NE9       30.28R WCI  -2
SIDNEY         PTCLDY    10   3  72 N14       30.30R WCI  -5
WOLF POINT     CLOUDY    11   1  64 NE14      30.31R WCI  -5
GLENDIVE       CLOUDY    12   9  85 NE18      30.20R WCI  -5
MILES CITY     LGT SNOW  18  15  88 NE24      30.11R FOG     WCI   0
BAKER          LGT SNOW  19  15  84 E9        30.09R VSB 3/4 WCI   8
$$

CITY           SKY/WX    TMP DP  RH WIND       PRES   REMARKS
BILLINGS       LGT SNOW  18  15  88 N17       30.07R FOG     WCI   3
GREAT FALLS    LGT SNOW  11   8  88 N20       30.23R FOG     WCI  -7
REGINA         PTCLDY   -13 -17  84 NW8       30.44R WCI -30
ESTEVAN        CLOUDY    -4 -11  71 NW8       30.36R WCI -19
$$



USA.gov is the U.S. government's official web portal to all federal, state and local government web resources and services.